Shelton, WA

8:32 PM PDT on September 21, 2017 (GMT -0700)
Sanderson

Weather History for KSHN - March, 2013

Change the Weather History Date:

Saturday, March 30, 2013

  Actual Average Record
Temperature  
Mean Temperature 51 °F -  
Max Temperature 70 °F 58 °F 73 °F (2016)
Min Temperature 32 °F 37 °F 25 °F (1954)
Degree Days  
Heating Degree Days 14    
Growing Degree Days 1 (Base 50)    
Moisture  
Dew Point 38 °F    
Average Humidity 82    
Maximum Humidity 100    
Minimum Humidity 33    
Precipitation  
Precipitation 0.00 in - - ()
Sea Level Pressure  
Sea Level Pressure 30.20 in    
Wind  
Wind Speed 1 mph (NE)    
Max Wind Speed 10 mph    
Max Gust Speed -    
Visibility 7 miles    
Events Fog    
Averages and records for this station are not official NWS values.
T = Trace of Precipitation, MM = Missing Value Source: NWS Daily Summary

Daily Weather History Graph

Daily Weather History Graph

Search for Another Location

Airport or City:

Trip Planner

Search our weather history database for the weather conditions in past years. The results will help you decide how hot, cold, wet, or windy it might be!

Date:

Astronomy

Mar. 30, 2013 Rise Set
Actual Time 6:54 AM PDT 7:39 PM PDT
Civil Twilight 6:23 AM PDT 8:10 PM PDT
Nautical Twilight 5:47 AM PDT 8:47 PM PDT
Astronomical Twilight 5:08 AM PDT 9:26 PM PDT
Moon No Moon Rise 8:39 AM PDT (3/30)
Length of Visible Light 13h 46m
Length of Day
12h 45m
Waning Gibbous, 85% of the Moon is Illuminated
Mar 30
Waning Gibbous
Apr 2
Last Quarter
Apr 10
New
Apr 18
First Quarter
Apr 25
Full

Hourly Weather History & Observations

Time (PDT) Temp. Windchill Dew Point Humidity Pressure Visibility Wind Dir Wind Speed Gust Speed Precip Events Conditions
12:53 AM 39.0 °F - 37.9 °F 96% 30.25 in 10.0 mi Calm Calm - N/A   Clear
1:31 AM 37.4 °F - 37.4 °F 100% 30.24 in 1.8 mi Calm Calm - N/A   Clear
1:41 AM 39.2 °F - 37.4 °F 93% 30.24 in 0.8 mi Calm Calm - N/A   Clear
1:47 AM 37.4 °F - 37.4 °F 100% 30.24 in 3.0 mi Calm Calm - N/A   Clear
1:53 AM 37.0 °F - 37.0 °F 100% 30.25 in 10.0 mi Calm Calm - N/A   Clear
2:16 AM 35.6 °F - 35.6 °F 100% 30.24 in 2.5 mi Calm Calm - N/A   Clear
2:23 AM 37.4 °F - 35.6 °F 93% 30.24 in 10.0 mi Calm Calm - N/A   Clear
2:34 AM 35.6 °F - 35.6 °F 100% 30.24 in 2.5 mi Calm Calm - N/A   Partly Cloudy
2:42 AM 35.6 °F - 35.6 °F 100% 30.24 in 1.5 mi Calm Calm - N/A   Scattered Clouds
2:46 AM 35.6 °F - 35.6 °F 100% 30.24 in 3.0 mi Calm Calm - N/A   Scattered Clouds
2:53 AM 35.1 °F - 34.0 °F 96% 30.25 in 4.0 mi Calm Calm - N/A   Mostly Cloudy
3:03 AM 35.6 °F - 33.8 °F 93% 30.24 in 2.5 mi Calm Calm - N/A   Mostly Cloudy
3:10 AM 35.6 °F - 33.8 °F 93% 30.24 in 9.0 mi Calm Calm - N/A   Mostly Cloudy
3:35 AM 37.4 °F - 35.6 °F 93% 30.24 in 10.0 mi Calm Calm - N/A   Scattered Clouds
3:53 AM 37.0 °F - 35.1 °F 93% 30.24 in 10.0 mi Calm Calm - N/A   Clear
4:53 AM 33.1 °F - 32.0 °F 96% 30.24 in 10.0 mi Calm Calm - N/A   Clear
5:13 AM 32.0 °F - 30.2 °F 93% 30.23 in 10.0 mi Calm Calm - N/A   Scattered Clouds
5:22 AM 33.8 °F - 32.0 °F 93% 30.23 in 6.0 mi Calm Calm - N/A   Mostly Cloudy
5:31 AM 33.8 °F - 33.8 °F 100% 30.22 in 1.5 mi Calm Calm - N/A   Overcast
5:49 AM 33.8 °F - 33.8 °F 100% 30.23 in 0.2 mi Calm Calm - N/A Fog Fog
5:53 AM 34.0 °F - 34.0 °F 100% 30.24 in 0.2 mi Calm Calm - N/A Fog Fog
6:53 AM 34.0 °F - 34.0 °F 100% 30.24 in 0.2 mi Calm Calm - N/A Fog Fog
7:53 AM 37.0 °F - 37.0 °F 100% 30.24 in 0.2 mi Calm Calm - N/A Fog Fog
8:53 AM 44.1 °F - 44.1 °F 100% 30.23 in 4.0 mi Calm Calm - N/A   Mostly Cloudy
9:02 AM 44.6 °F 43.1 °F 42.8 °F 93% 30.22 in 10.0 mi NE 3.5 mph - N/A   Scattered Clouds
9:53 AM 50.0 °F - 43.0 °F 77% 30.23 in 10.0 mi NE 5.8 mph - N/A   Clear
10:53 AM 55.9 °F - 45.0 °F 67% 30.21 in 10.0 mi Variable 4.6 mph - N/A   Clear
11:53 AM 61.0 °F - 44.1 °F 54% 30.20 in 10.0 mi East 8.1 mph - N/A   Clear
12:53 PM 64.9 °F - 42.1 °F 43% 30.18 in 10.0 mi ENE 5.8 mph - N/A   Clear
1:53 PM 66.9 °F - 39.9 °F 37% 30.17 in 10.0 mi NE 8.1 mph - N/A   Clear
2:53 PM 68.0 °F - 39.9 °F 36% 30.14 in 10.0 mi East 9.2 mph - N/A   Clear
3:53 PM 70.0 °F - 39.9 °F 33% 30.11 in 10.0 mi East 5.8 mph - N/A   Clear
4:53 PM 69.1 °F - 42.1 °F 38% 30.09 in 10.0 mi NNW 10.4 mph - N/A   Clear
5:53 PM 66.9 °F - 43.0 °F 42% 30.08 in 10.0 mi North 8.1 mph - N/A   Clear
6:53 PM 62.1 °F - 43.0 °F 50% 30.08 in 10.0 mi North 6.9 mph - N/A   Clear
7:53 PM 57.0 °F - 44.1 °F 62% 30.07 in 10.0 mi North 4.6 mph - N/A   Clear
8:53 PM 54.0 °F - 43.0 °F 66% 30.08 in 10.0 mi NNE 4.6 mph - N/A   Clear
9:53 PM 48.0 °F - 42.1 °F 80% 30.08 in 10.0 mi Calm Calm - N/A   Clear
10:53 PM 45.0 °F - 41.0 °F 86% 30.07 in 10.0 mi Calm Calm - N/A   Clear
11:53 PM 42.1 °F - 39.0 °F 89% 30.06 in 10.0 mi Calm Calm - N/A   Clear